Time,TemperatureF,DewpointF,PressureIn,WindDirection,WindDirectionDegrees,WindSpeedMPH,WindSpeedGustMPH,Humidity,HourlyPrecipIn,Conditions,Clouds,dailyrainin,SoftwareType,DateUTC
2013-08-24 00:01:00,60.2,53.0,29.82,SW,224,7.0,7.0,77,0.00,,,0.00,Wunderground v.1.15,2013-08-24 07:01:00,
2013-08-24 00:11:00,59.8,52.9,29.82,SW,219,3.0,3.0,78,0.00,,,0.00,Wunderground v.1.15,2013-08-24 07:11:00,
2013-08-24 00:21:00,59.6,52.7,29.83,WNW,292,1.0,1.0,78,0.00,,,0.00,Wunderground v.1.15,2013-08-24 07:21:00,
2013-08-24 00:30:00,59.2,52.7,29.82,WNW,292,0.0,0.0,79,0.00,,,0.00,Wunderground v.1.15,2013-08-24 07:30:00,
2013-08-24 00:40:00,58.7,52.9,29.82,NW,307,0.0,0.0,81,0.00,,,0.00,Wunderground v.1.15,2013-08-24 07:40:00,
2013-08-24 00:50:00,58.1,52.6,29.82,NW,306,0.0,0.0,82,0.00,,,0.00,Wunderground v.1.15,2013-08-24 07:50:00,
2013-08-24 00:55:00,57.9,52.4,29.83,NW,314,0.0,0.0,82,0.00,,,0.00,Wunderground v.1.15,2013-08-24 07:55:00,
2013-08-24 01:05:00,57.5,52.4,29.83,NW,313,0.0,0.0,83,0.00,,,0.00,Wunderground v.1.15,2013-08-24 08:05:00,
2013-08-24 01:15:00,57.3,52.5,29.83,NW,313,0.0,0.0,84,0.00,,,0.00,Wunderground v.1.15,2013-08-24 08:15:00,
2013-08-24 01:25:00,57.5,52.7,29.83,NW,318,0.0,1.0,84,0.00,,,0.00,Wunderground v.1.15,2013-08-24 08:25:00,
2013-08-24 01:31:00,57.6,52.8,29.83,NW,318,0.0,0.0,84,0.00,,,0.00,Wunderground v.1.15,2013-08-24 08:31:00,
2013-08-24 01:45:00,57.5,52.4,29.83,NW,317,0.0,0.0,83,0.00,,,0.00,Wunderground v.1.15,2013-08-24 08:45:00,
2013-08-24 01:51:00,57.7,52.6,29.83,SW,227,0.0,0.0,83,0.00,,,0.00,Wunderground v.1.15,2013-08-24 08:51:00,
2013-08-24 02:01:00,57.8,52.7,29.83,WNW,303,0.0,0.0,83,0.00,,,0.00,Wunderground v.1.15,2013-08-24 09:01:00,
2013-08-24 02:20:00,57.5,53.0,29.83,SW,234,0.0,0.0,85,0.00,,,0.00,Wunderground v.1.15,2013-08-24 09:20:00,
2013-08-24 02:31:00,57.8,53.3,29.83,SW,215,2.0,6.0,85,0.00,,,0.00,Wunderground v.1.15,2013-08-24 09:31:00,
2013-08-24 02:40:00,58.3,53.5,29.83,SW,222,6.0,6.0,84,0.00,,,0.00,Wunderground v.1.15,2013-08-24 09:40:00,
2013-08-24 02:45:00,58.1,53.3,29.83,SSW,208,4.0,6.0,84,0.00,,,0.00,Wunderground v.1.15,2013-08-24 09:45:00,
2013-08-24 02:55:00,58.0,53.2,29.83,SW,215,3.0,4.0,84,0.00,,,0.00,Wunderground v.1.15,2013-08-24 09:55:00,
2013-08-24 03:00:00,58.1,53.3,29.83,SSW,208,3.0,3.0,84,0.00,,,0.00,Wunderground v.1.15,2013-08-24 10:00:00,
2013-08-24 03:05:00,58.0,53.2,29.83,SW,224,3.0,3.0,84,0.00,,,0.00,Wunderground v.1.15,2013-08-24 10:05:00,
2013-08-24 03:15:00,58.1,53.0,29.83,SW,219,3.0,5.0,83,0.00,,,0.00,Wunderground v.1.15,2013-08-24 10:15:00,
2013-08-24 03:21:00,58.2,53.1,29.83,SSW,213,5.0,5.0,83,0.00,,,0.00,Wunderground v.1.15,2013-08-24 10:21:00,
2013-08-24 03:30:00,58.0,52.9,29.83,SSW,211,3.0,3.0,83,0.00,,,0.00,Wunderground v.1.15,2013-08-24 10:30:00,
2013-08-24 03:40:00,57.8,52.7,29.83,West,269,0.0,1.0,83,0.00,,,0.00,Wunderground v.1.15,2013-08-24 10:40:00,
2013-08-24 03:45:00,57.6,52.8,29.83,WNW,303,0.0,1.0,84,0.00,,,0.00,Wunderground v.1.15,2013-08-24 10:45:00,
2013-08-24 03:50:00,57.4,52.6,29.83,NW,304,1.0,1.0,84,0.00,,,0.00,Wunderground v.1.15,2013-08-24 10:50:00,
2013-08-24 04:05:00,56.9,52.4,29.83,WNW,303,0.0,0.0,85,0.00,,,0.00,Wunderground v.1.15,2013-08-24 11:05:00,
2013-08-24 04:25:00,56.7,52.6,29.83,WNW,303,0.0,0.0,86,0.00,,,0.00,Wunderground v.1.15,2013-08-24 11:25:00,
2013-08-24 04:36:00,56.5,52.4,29.83,WNW,303,0.0,0.0,86,0.00,,,0.00,Wunderground v.1.15,2013-08-24 11:36:00,
2013-08-24 04:45:00,56.6,52.5,29.83,WNW,303,0.0,0.0,86,0.00,,,0.00,Wunderground v.1.15,2013-08-24 11:45:00,
2013-08-24 04:55:00,56.4,52.6,29.83,NW,314,0.0,0.0,87,0.00,,,0.00,Wunderground v.1.15,2013-08-24 11:55:00,
2013-08-24 05:05:00,56.3,52.5,29.83,NW,314,0.0,0.0,87,0.00,,,0.00,Wunderground v.1.15,2013-08-24 12:05:00,
2013-08-24 05:16:00,56.2,52.4,29.83,NW,314,0.0,0.0,87,0.00,,,0.00,Wunderground v.1.15,2013-08-24 12:16:00,
2013-08-24 05:25:00,56.2,52.4,29.83,NW,314,0.0,0.0,87,0.00,,,0.00,Wunderground v.1.15,2013-08-24 12:25:00,
2013-08-24 05:30:00,56.1,52.3,29.83,NW,314,0.0,0.0,87,0.00,,,0.00,Wunderground v.1.15,2013-08-24 12:30:00,
2013-08-24 05:40:00,56.0,52.5,29.83,NW,314,0.0,0.0,88,0.00,,,0.00,Wunderground v.1.15,2013-08-24 12:40:00,
2013-08-24 05:50:00,56.0,52.5,29.83,NW,314,0.0,0.0,88,0.00,,,0.00,Wunderground v.1.15,2013-08-24 12:50:00,
2013-08-24 05:56:00,55.9,52.4,29.83,NW,314,0.0,0.0,88,0.00,,,0.00,Wunderground v.1.15,2013-08-24 12:56:00,
2013-08-24 06:05:00,55.9,52.7,29.83,NW,320,0.0,1.0,89,0.00,,,0.00,Wunderground v.1.15,2013-08-24 13:05:00,
2013-08-24 06:11:00,56.0,52.8,29.83,NW,320,0.0,0.0,89,0.00,,,0.00,Wunderground v.1.15,2013-08-24 13:11:00,
2013-08-24 06:21:00,56.1,52.9,29.83,NW,320,0.0,0.0,89,0.00,,,0.00,Wunderground v.1.15,2013-08-24 13:21:00,
2013-08-24 06:30:00,55.7,52.2,29.83,NW,320,0.0,0.0,88,0.00,,,0.00,Wunderground v.1.15,2013-08-24 13:30:00,
2013-08-24 06:41:00,56.1,52.9,29.84,NW,320,0.0,0.0,89,0.00,,,0.00,Wunderground v.1.15,2013-08-24 13:41:00,
2013-08-24 06:51:00,56.0,52.8,29.83,NW,320,0.0,0.0,89,0.00,,,0.00,Wunderground v.1.15,2013-08-24 13:51:00,
2013-08-24 07:01:00,55.9,52.7,29.84,NW,320,0.0,0.0,89,0.00,,,0.00,Wunderground v.1.15,2013-08-24 14:01:00,
2013-08-24 07:10:00,56.2,53.3,29.84,NW,320,0.0,0.0,90,0.00,,,0.00,Wunderground v.1.15,2013-08-24 14:10:00,
2013-08-24 07:25:00,57.2,54.0,29.84,NW,320,0.0,0.0,89,0.00,,,0.00,Wunderground v.1.15,2013-08-24 14:25:00,
2013-08-24 07:30:00,57.7,54.5,29.84,NW,320,0.0,0.0,89,0.00,,,0.00,Wunderground v.1.15,2013-08-24 14:30:00,
2013-08-24 07:36:00,58.2,54.7,29.84,NW,320,0.0,0.0,88,0.00,,,0.00,Wunderground v.1.15,2013-08-24 14:36:00,
2013-08-24 07:41:00,58.7,54.5,29.84,NW,315,0.0,0.0,86,0.00,,,0.00,Wunderground v.1.15,2013-08-24 14:41:00,
2013-08-24 07:50:00,59.9,55.1,29.84,NW,308,1.0,3.0,84,0.00,,,0.00,Wunderground v.1.15,2013-08-24 14:50:00,
2013-08-24 07:55:00,60.5,55.0,29.85,SSW,204,1.0,4.0,82,0.00,,,0.00,Wunderground v.1.15,2013-08-24 14:55:00,
2013-08-24 08:16:00,62.9,55.6,29.85,WNW,292,0.0,0.0,77,0.00,,,0.00,Wunderground v.1.15,2013-08-24 15:16:00,
2013-08-24 08:25:00,63.5,54.7,29.85,SW,221,2.0,7.0,73,0.00,,,0.00,Wunderground v.1.15,2013-08-24 15:25:00,
2013-08-24 08:36:00,64.0,54.8,29.85,SW,219,5.0,6.0,72,0.00,,,0.00,Wunderground v.1.15,2013-08-24 15:36:00,
2013-08-24 08:46:00,64.0,54.4,29.85,SSW,196,6.0,6.0,71,0.00,,,0.00,Wunderground v.1.15,2013-08-24 15:46:00,
2013-08-24 08:55:00,64.7,54.7,29.86,SSW,209,5.0,8.0,70,0.00,,,0.00,Wunderground v.1.15,2013-08-24 15:55:00,
2013-08-24 09:00:00,64.5,54.5,29.85,SSW,194,8.0,8.0,70,0.00,,,0.00,Wunderground v.1.15,2013-08-24 16:00:00,
2013-08-24 09:06:00,64.5,54.5,29.86,South,190,9.0,9.0,70,0.00,,,0.00,Wunderground v.1.15,2013-08-24 16:06:00,
2013-08-24 09:15:00,65.6,55.5,29.86,SSW,209,6.0,11.0,70,0.00,,,0.00,Wunderground v.1.15,2013-08-24 16:15:00,
2013-08-24 09:25:00,66.6,55.7,29.86,SSW,209,5.0,14.0,68,0.00,,,0.00,Wunderground v.1.15,2013-08-24 16:25:00,
2013-08-24 09:31:00,66.3,55.8,29.86,SW,217,6.0,9.0,69,0.00,,,0.00,Wunderground v.1.15,2013-08-24 16:31:00,
2013-08-24 09:40:00,66.5,55.2,29.86,SSW,194,7.0,8.0,67,0.00,,,0.00,Wunderground v.1.15,2013-08-24 16:40:00,
2013-08-24 09:50:00,67.0,55.3,29.86,SW,215,8.0,8.0,66,0.00,,,0.00,Wunderground v.1.15,2013-08-24 16:50:00,
2013-08-24 10:00:00,68.6,55.9,29.86,SSW,205,4.0,4.0,64,0.00,,,0.00,Wunderground v.1.15,2013-08-24 17:00:00,
2013-08-24 10:10:00,67.8,55.2,29.86,SSW,211,9.0,9.0,64,0.00,,,0.00,Wunderground v.1.15,2013-08-24 17:10:00,
2013-08-24 10:25:00,69.9,55.4,29.86,South,174,7.0,7.0,60,0.00,,,0.00,Wunderground v.1.15,2013-08-24 17:25:00,
2013-08-24 10:35:00,71.0,55.5,29.86,SSW,206,6.0,7.0,58,0.00,,,0.00,Wunderground v.1.15,2013-08-24 17:35:00,
2013-08-24 10:45:00,71.4,55.4,29.86,SSW,200,7.0,7.0,57,0.00,,,0.00,Wunderground v.1.15,2013-08-24 17:45:00,
2013-08-24 10:56:00,73.5,55.3,29.86,SW,219,5.0,9.0,53,0.00,,,0.00,Wunderground v.1.15,2013-08-24 17:56:00,
2013-08-24 11:01:00,73.4,55.2,29.86,SSW,209,6.0,6.0,53,0.00,,,0.00,Wunderground v.1.15,2013-08-24 18:01:00,
2013-08-24 11:06:00,74.1,55.3,29.86,SW,225,6.0,6.0,52,0.00,,,0.00,Wunderground v.1.15,2013-08-24 18:06:00,
2013-08-24 11:15:00,74.8,56.5,29.86,SSW,200,5.0,7.0,53,0.00,,,0.00,Wunderground v.1.15,2013-08-24 18:15:00,
2013-08-24 11:20:00,75.0,55.6,29.86,SSW,209,6.0,11.0,51,0.00,,,0.00,Wunderground v.1.15,2013-08-24 18:20:00,
2013-08-24 11:30:00,75.9,57.0,29.86,SSW,204,5.0,8.0,52,0.00,,,0.00,Wunderground v.1.15,2013-08-24 18:30:00,
2013-08-24 11:40:00,75.9,57.0,29.86,SW,217,7.0,7.0,52,0.00,,,0.00,Wunderground v.1.15,2013-08-24 18:40:00,
2013-08-24 11:45:00,76.5,56.5,29.86,SSW,208,6.0,9.0,50,0.00,,,0.00,Wunderground v.1.15,2013-08-24 18:45:00,
2013-08-24 11:50:00,76.9,56.8,29.86,SW,217,6.0,8.0,50,0.00,,,0.00,Wunderground v.1.15,2013-08-24 18:50:00,
2013-08-24 12:00:00,77.6,56.4,29.86,SW,214,5.0,5.0,48,0.00,,,0.00,Wunderground v.1.15,2013-08-24 19:00:00,
2013-08-24 12:15:00,81.9,57.2,29.86,WNW,300,2.0,4.0,43,0.00,,,0.00,Wunderground v.1.15,2013-08-24 19:15:00,
2013-08-24 12:20:00,82.5,55.7,29.86,NW,317,2.0,6.0,40,0.00,,,0.00,Wunderground v.1.15,2013-08-24 19:20:00,
2013-08-24 12:31:00,83.1,57.0,29.86,NNW,340,3.0,3.0,41,0.00,,,0.00,Wunderground v.1.15,2013-08-24 19:31:00,
2013-08-24 12:40:00,83.4,56.5,29.86,NW,314,3.0,3.0,40,0.00,,,0.00,Wunderground v.1.15,2013-08-24 19:40:00,
2013-08-24 12:51:00,82.8,57.4,29.85,SW,232,2.0,3.0,42,0.00,,,0.00,Wunderground v.1.15,2013-08-24 19:51:00,
2013-08-24 13:00:00,80.1,55.6,29.85,SSW,202,4.0,4.0,43,0.00,,,0.00,Wunderground v.1.15,2013-08-24 20:00:00,
2013-08-24 13:06:00,80.0,57.4,29.85,WNW,289,5.0,5.0,46,0.00,,,0.00,Wunderground v.1.15,2013-08-24 20:06:00,
2013-08-24 13:15:00,79.8,56.6,29.85,SSW,198,6.0,6.0,45,0.00,,,0.00,Wunderground v.1.15,2013-08-24 20:15:00,
2013-08-24 13:20:00,78.8,56.9,29.85,SW,217,9.0,9.0,47,0.00,,,0.00,Wunderground v.1.15,2013-08-24 20:20:00,
2013-08-24 13:26:00,79.8,57.2,29.85,SSW,209,7.0,9.0,46,0.00,,,0.00,Wunderground v.1.15,2013-08-24 20:26:00,
2013-08-24 13:35:00,81.2,57.8,29.85,WNW,287,1.0,2.0,45,0.00,,,0.00,Wunderground v.1.15,2013-08-24 20:35:00,
2013-08-24 13:40:00,81.2,56.6,29.85,NNW,333,1.0,3.0,43,0.00,,,0.00,Wunderground v.1.15,2013-08-24 20:40:00,
2013-08-24 13:51:00,83.0,56.9,29.85,NNW,336,2.0,2.0,41,0.00,,,0.00,Wunderground v.1.15,2013-08-24 20:51:00,
2013-08-24 14:01:00,83.8,57.6,29.85,WNW,298,1.0,1.0,41,0.00,,,0.00,Wunderground v.1.15,2013-08-24 21:01:00,
2013-08-24 14:11:00,80.0,56.7,29.84,SSW,196,6.0,6.0,45,0.00,,,0.00,Wunderground v.1.15,2013-08-24 21:11:00,
2013-08-24 14:21:00,82.1,58.0,29.85,North,355,2.0,2.0,44,0.00,,,0.00,Wunderground v.1.15,2013-08-24 21:21:00,
2013-08-24 14:31:00,83.9,58.3,29.85,NW,318,1.0,1.0,42,0.00,,,0.00,Wunderground v.1.15,2013-08-24 21:31:00,
2013-08-24 14:40:00,83.4,57.2,29.84,SSW,205,2.0,2.0,41,0.00,,,0.00,Wunderground v.1.15,2013-08-24 21:40:00,
2013-08-24 14:50:00,83.3,57.1,29.84,North,355,2.0,6.0,41,0.00,,,0.00,Wunderground v.1.15,2013-08-24 21:50:00,
2013-08-24 14:55:00,84.4,58.1,29.84,NNW,336,3.0,6.0,41,0.00,,,0.00,Wunderground v.1.15,2013-08-24 21:55:00,
2013-08-24 15:05:00,85.3,57.5,29.84,SW,228,2.0,3.0,39,0.00,,,0.00,Wunderground v.1.15,2013-08-24 22:05:00,
2013-08-24 15:11:00,85.2,56.0,29.84,NNW,331,3.0,5.0,37,0.00,,,0.00,Wunderground v.1.15,2013-08-24 22:11:00,
2013-08-24 15:20:00,85.3,56.8,29.83,NNW,340,2.0,2.0,38,0.00,,,0.00,Wunderground v.1.15,2013-08-24 22:20:00,
2013-08-24 15:25:00,85.5,57.7,29.83,SW,216,2.0,2.0,39,0.00,,,0.00,Wunderground v.1.15,2013-08-24 22:25:00,
2013-08-24 15:35:00,85.7,57.9,29.83,NNW,330,2.0,3.0,39,0.00,,,0.00,Wunderground v.1.15,2013-08-24 22:35:00,
2013-08-24 15:40:00,85.4,56.9,29.83,NW,314,3.0,7.0,38,0.00,,,0.00,Wunderground v.1.15,2013-08-24 22:40:00,
2013-08-24 15:50:00,83.7,56.8,29.83,NW,306,4.0,4.0,40,0.00,,,0.00,Wunderground v.1.15,2013-08-24 22:50:00,
2013-08-24 15:55:00,83.2,57.1,29.83,West,280,4.0,4.0,41,0.00,,,0.00,Wunderground v.1.15,2013-08-24 22:55:00,
2013-08-24 16:05:00,83.7,56.8,29.83,NNW,332,3.0,3.0,40,0.00,,,0.00,Wunderground v.1.15,2013-08-24 23:05:00,
2013-08-24 16:15:00,84.2,56.6,29.83,WNW,301,2.0,2.0,39,0.00,,,0.00,Wunderground v.1.15,2013-08-24 23:15:00,
2013-08-24 16:25:00,84.0,57.1,29.83,South,169,3.0,3.0,40,0.00,,,0.00,Wunderground v.1.15,2013-08-24 23:25:00,
2013-08-24 16:35:00,83.7,56.1,29.83,NW,326,1.0,6.0,39,0.00,,,0.00,Wunderground v.1.15,2013-08-24 23:35:00,
2013-08-24 16:46:00,83.6,56.7,29.83,NW,319,3.0,3.0,40,0.00,,,0.00,Wunderground v.1.15,2013-08-24 23:46:00,
2013-08-24 17:00:00,82.8,56.0,29.83,NW,304,3.0,6.0,40,0.00,,,0.00,Wunderground v.1.15,2013-08-25 00:00:00,
2013-08-24 17:06:00,82.3,56.9,29.83,West,274,2.0,6.0,42,0.00,,,0.00,Wunderground v.1.15,2013-08-25 00:06:00,
2013-08-24 17:11:00,81.8,57.1,29.83,West,264,2.0,3.0,43,0.00,,,0.00,Wunderground v.1.15,2013-08-25 00:11:00,
2013-08-24 17:20:00,80.5,55.9,29.83,SW,219,3.0,3.0,43,0.00,,,0.00,Wunderground v.1.15,2013-08-25 00:20:00,
2013-08-24 17:30:00,78.8,57.4,29.83,NW,309,2.0,2.0,48,0.00,,,0.00,Wunderground v.1.15,2013-08-25 00:30:00,
2013-08-24 17:45:00,78.8,57.4,29.83,WNW,297,3.0,3.0,48,0.00,,,0.00,Wunderground v.1.15,2013-08-25 00:45:00,
2013-08-24 17:55:00,78.4,58.2,29.83,West,265,3.0,6.0,50,0.00,,,0.00,Wunderground v.1.15,2013-08-25 00:55:00,
2013-08-24 18:05:00,77.2,57.7,29.83,NW,313,2.0,5.0,51,0.00,,,0.00,Wunderground v.1.15,2013-08-25 01:05:00,
2013-08-24 18:11:00,77.1,57.6,29.83,North,5,2.0,2.0,51,0.00,,,0.00,Wunderground v.1.15,2013-08-25 01:11:00,
2013-08-24 18:20:00,76.3,57.9,29.83,NW,306,2.0,2.0,53,0.00,,,0.00,Wunderground v.1.15,2013-08-25 01:20:00,
2013-08-24 18:25:00,76.0,58.2,29.83,WNW,297,2.0,6.0,54,0.00,,,0.00,Wunderground v.1.15,2013-08-25 01:25:00,
2013-08-24 18:30:00,75.7,57.9,29.83,NNW,336,1.0,3.0,54,0.00,,,0.00,Wunderground v.1.15,2013-08-25 01:30:00,
2013-08-24 18:36:00,75.4,58.1,29.83,South,191,2.0,3.0,55,0.00,,,0.00,Wunderground v.1.15,2013-08-25 01:36:00,
2013-08-24 18:41:00,74.8,58.1,29.83,NW,308,1.0,1.0,56,0.00,,,0.00,Wunderground v.1.15,2013-08-25 01:41:00,
2013-08-24 18:51:00,74.1,57.9,29.83,NW,312,1.0,1.0,57,0.00,,,0.00,Wunderground v.1.15,2013-08-25 01:51:00,
2013-08-24 19:01:00,73.7,58.0,29.82,NW,304,1.0,1.0,58,0.00,,,0.00,Wunderground v.1.15,2013-08-25 02:01:00,
2013-08-24 19:10:00,72.6,57.9,29.83,SW,219,1.0,2.0,60,0.00,,,0.00,Wunderground v.1.15,2013-08-25 02:10:00,
2013-08-24 19:21:00,70.1,57.8,29.83,SW,224,4.0,4.0,65,0.00,,,0.00,Wunderground v.1.15,2013-08-25 02:21:00,
2013-08-24 19:26:00,69.2,57.8,29.83,SW,220,5.0,7.0,67,0.00,,,0.00,Wunderground v.1.15,2013-08-25 02:26:00,
2013-08-24 19:35:00,68.7,57.7,29.84,SSW,194,3.0,7.0,68,0.00,,,0.00,Wunderground v.1.15,2013-08-25 02:35:00,
2013-08-24 19:40:00,68.1,57.5,29.84,SSW,201,2.0,2.0,69,0.00,,,0.00,Wunderground v.1.15,2013-08-25 02:40:00,
2013-08-24 19:50:00,66.8,57.5,29.84,SSW,205,5.0,8.0,72,0.00,,,0.00,Wunderground v.1.15,2013-08-25 02:50:00,
2013-08-24 19:56:00,66.1,57.6,29.84,SSW,205,7.0,8.0,74,0.00,,,0.00,Wunderground v.1.15,2013-08-25 02:56:00,
2013-08-24 20:05:00,65.7,57.6,29.84,SSW,206,6.0,8.0,75,0.00,,,0.00,Wunderground v.1.15,2013-08-25 03:05:00,
2013-08-24 20:11:00,65.4,57.6,29.84,SSW,213,5.0,6.0,76,0.00,,,0.00,Wunderground v.1.15,2013-08-25 03:11:00,
2013-08-24 20:20:00,65.3,57.5,29.85,WSW,255,4.0,4.0,76,0.00,,,0.00,Wunderground v.1.15,2013-08-25 03:20:00,
2013-08-24 20:25:00,65.1,57.7,29.84,SW,220,3.0,4.0,77,0.00,,,0.00,Wunderground v.1.15,2013-08-25 03:25:00,
2013-08-24 20:31:00,64.8,57.4,29.85,SSW,213,4.0,4.0,77,0.00,,,0.00,Wunderground v.1.15,2013-08-25 03:31:00,
2013-08-24 20:41:00,64.1,57.5,29.85,SSW,207,4.0,5.0,79,0.00,,,0.00,Wunderground v.1.15,2013-08-25 03:41:00,
2013-08-24 20:51:00,63.5,57.2,29.85,SW,225,4.0,6.0,80,0.00,,,0.00,Wunderground v.1.15,2013-08-25 03:51:00,
2013-08-24 20:56:00,63.2,57.6,29.85,SSW,203,4.0,6.0,82,0.00,,,0.00,Wunderground v.1.15,2013-08-25 03:56:00,
2013-08-24 21:05:00,63.0,57.4,29.85,SW,218,4.0,6.0,82,0.00,,,0.00,Wunderground v.1.15,2013-08-25 04:05:00,
2013-08-24 21:15:00,63.0,57.8,29.85,SW,226,6.0,6.0,83,0.00,,,0.00,Wunderground v.1.15,2013-08-25 04:15:00,
2013-08-24 21:30:00,63.2,57.6,29.86,SW,217,4.0,6.0,82,0.00,,,0.00,Wunderground v.1.15,2013-08-25 04:30:00,
2013-08-24 21:35:00,63.0,57.8,29.86,SW,218,4.0,6.0,83,0.00,,,0.00,Wunderground v.1.15,2013-08-25 04:35:00,
2013-08-24 21:45:00,62.8,57.9,29.86,SW,225,1.0,3.0,84,0.00,,,0.00,Wunderground v.1.15,2013-08-25 04:45:00,
2013-08-24 21:50:00,62.7,57.8,29.86,SW,225,1.0,1.0,84,0.00,,,0.00,Wunderground v.1.15,2013-08-25 04:50:00,
2013-08-24 21:56:00,62.7,57.8,29.87,SW,225,0.0,1.0,84,0.00,,,0.00,Wunderground v.1.15,2013-08-25 04:56:00,
2013-08-24 22:01:00,62.5,57.6,29.87,SW,225,0.0,0.0,84,0.00,,,0.00,Wunderground v.1.15,2013-08-25 05:01:00,
2013-08-24 22:10:00,62.4,57.8,29.87,SW,217,1.0,3.0,85,0.00,,,0.00,Wunderground v.1.15,2013-08-25 05:10:00,
2013-08-24 22:20:00,62.0,57.4,29.87,SW,217,2.0,2.0,85,0.00,,,0.00,Wunderground v.1.15,2013-08-25 05:20:00,
2013-08-24 22:31:00,61.8,57.6,29.87,SSW,203,2.0,2.0,86,0.00,,,0.00,Wunderground v.1.15,2013-08-25 05:31:00,
2013-08-24 22:40:00,61.7,57.8,29.88,South,175,3.0,4.0,87,0.00,,,0.00,Wunderground v.1.15,2013-08-25 05:40:00,
2013-08-24 22:45:00,61.6,57.7,29.88,South,178,2.0,5.0,87,0.00,,,0.00,Wunderground v.1.15,2013-08-25 05:45:00,
2013-08-24 23:00:00,61.6,58.0,29.88,SSW,207,5.0,7.0,88,0.00,,,0.00,Wunderground v.1.15,2013-08-25 06:00:00,
2013-08-24 23:05:00,61.5,57.9,29.88,SSW,198,6.0,10.0,88,0.00,,,0.00,Wunderground v.1.15,2013-08-25 06:05:00,
2013-08-24 23:16:00,61.3,58.0,29.88,SW,219,7.0,8.0,89,0.00,,,0.00,Wunderground v.1.15,2013-08-25 06:16:00,
2013-08-24 23:25:00,61.2,57.9,29.88,SW,220,6.0,6.0,89,0.00,,,0.00,Wunderground v.1.15,2013-08-25 06:25:00,
2013-08-24 23:46:00,61.0,58.0,29.88,SW,219,7.0,7.0,90,0.00,,,0.00,Wunderground v.1.15,2013-08-25 06:46:00,
2013-08-24 23:55:00,61.0,58.0,29.88,South,182,6.0,6.0,90,0.00,,,0.00,Wunderground v.1.15,2013-08-25 06:55:00,